Other Surface Observations
Issued by NWS

Home | Current Version | Previous Version | Text Only | Print | Product List | Glossary On
Versions: 1 2 3 4 5 6 7 8 9 10 11 12 13 14 15 16 17 18 19 20 21 22 23 24 25 26 27 28 29 30 31 32 33 34 35 36 37 38 39 40 41 42 43 44 45 46 47 48 49 50
000
SXUS52 KTAE 290418
OSOTAE
OSOTAE
North Florida/South Alabama/Southwest Georgia Weather Roundup
National Weather Service Tallahassee Florida
1200 AM EDT FRI JUL 29 2016

Note: "fair" indicates few or no clouds below 12,000 feet with no
significant weather and/or obstructions to visibility.

!FLZ017-115-028-034-025-290500
...North Florida...

CITY           SKY/WX    TMP DP  RH WIND       PRES   REMARKS
TALLAHASSEE    CLEAR     82  76  81 CALM      30.05R
APALACHICOLA   CLEAR     80  77  90 CALM      30.05R
PERRY          CLEAR     79  75  86 CALM      30.05S
CROSS CITY       N/A     77  74  90 S3        30.05R
JACKSONVILLE   PTCLDY    80  77  90 SW3       30.03R
$$

!FLZ112-006-005-002-011-290500
...Florida Panhandle...

CITY           SKY/WX    TMP DP  RH WIND       PRES   REMARKS
MARIANNA       CLEAR     80  76  87 SW6       30.03S
BONIFAY        FAIR      79  75  87 CALM      30.05
PANAMA CITY NW FAIR      78  76  93 CALM      30.03S
TYNDALL AFB    PTCLDY    84  74  72 W3        30.05R HX  92
TYND DRONE APT NOT AVBL
DE FUNIAK SPR  FAIR      77  76  97 CALM      30.05S
EGLIN AFB      PTCLDY    83  76  78 CALM      30.04S HX  91
DESTIN         PTCLDY    88  77  69 VRB5      30.03R HX 100
HURLBURT       CLEAR     85  74  70 CALM      30.02R HX  92
CRESTVIEW      CLEAR     78  75  90 CALM      30.05F
PENSACOLA      CLEAR     83  76  79 SW6       30.03F HX  91
$$

!ALZ063-066-290500
...South Alabama...

CITY           SKY/WX    TMP DP  RH WIND       PRES   REMARKS
DOTHAN         CLEAR     80  75  84 SW8       30.07F
OZARK CAIRNS   CLEAR     79  74  84 SW6       30.03F
FT RUCKER HELI CLEAR     78  74  87 CALM      30.03S
RUCKER HELI 3  FAIR      80  73  77 SW7       30.05R
RUCKER HELI 2  FAIR      79  73  82 S5        30.03F
FLORALA APT    CLEAR     76  72  87 CALM      30.06F
ANDALUSIA      CLEAR     82  72  71 SW3       30.03R
TROY           CLEAR     76  73  91 CALM      30.04R
EUFALA         FAIR      81  72  74 NW7       30.02S
MOBILE         PTCLDY    78  74  87 CALM      30.04S
$$

!GAZ120>161-290500
...Southwest and South Central Georgia...

CITY           SKY/WX    TMP DP  RH WIND       PRES   REMARKS
THOMASVILLE    NOT AVBL
BAINBRIDGE     CLEAR     79  73  83 CALM      30.05R
MOODY AFB      CLEAR     82  72  69 SW9       30.03R
VALDOSTA       CLEAR     78  73  84 CALM      30.04S
MOULTRIE       CLEAR     81  72  74 CALM      30.05S
BLAKELY        CLEAR     79  73  83 CALM      30.04S
ALBANY         CLEAR     80  72  76 SW5       30.04S
TIFTON         FAIR      81  74  77 SW5       30.04R
FITZGERALD     FAIR      85  75  73 SW3       30.05S HX  93
CORDELE        FAIR      86  71  60 SW7       30.03S HX  91
AMERICUS       FAIR      81  66  61 SW6       30.04S
HOMERVILLE     FAIR      82  73  74 W6        30.04R
$$

!GMZ750-755-770-775-290500
...Coastal and Buoy Obs...

STATION/POSITION TIME  TEMP    WIND        PRES    VSBY  WAVE
                       AIR SEA DIR/SP/G                  HT/PER
                 (UTC) (F)     (DEG/KT/KT) (MB)    (MI)  (FT/S)
KEATON BEACH     0400   87     270/  8/  9 1017.1R
CEDAR KEY        0400   86     290/  5/  6 1017.9R
C TOWER          0400   85     260/  6/  7 1018.4R
APALACHICOLA BUO 0350   86 89  200/  2/  4 1017.9R         1/ 6
PANAMA CITY BUOY 0350   86 87  170/  6/  6 1018.0R         1/ 5
MOBILE BUOY      0400   85 88  160/  8/  8 1016.8F
ORANGE BCH AL BU 0350   86 87  210/  6/  8 1016.8F         1/ 6
$$




USA.gov is the U.S. government's official web portal to all federal, state and local government web resources and services.